Meteo Giornale » Osservazioni meteo Gran Bretagna » Hawarden

ore: 19:50 - Osservazioni Meteo Hawarden
Lat. 53° 10' N Lon. 2° 59' W Alt. 10 metri s.l.m.

poco_nuvoloso

17 °C

Poco Nuvoloso

Temp. 24 Ore

11 °C

21 °C

Sud-Ovest

9.3 Km/h

Dew point 12 °C

Umidità 72 %

Visibilità  10 Km

Il sole sorge alle ore 06:21

Il sole tramonta alle ore 20:01

Data e Ora Cielo e Fenomeni T °C DP °C Um. % Pres. hPa Vis. km Vento km/h
Oggi h: 19:50 poco_nuvoloso Poco Nuvoloso 17 12 72 1018 10 SO 9.3
Oggi h: 19:20 poco_nuvoloso Poco Nuvoloso 18 12 67 1018 10 SO 13
Oggi h: 18:50 poco_nuvoloso Poco Nuvoloso 19 12 63 1017 10 O/SO 16.7
Oggi h: 18:20 nuvoloso Nuvoloso 19 11 59 1018 10 O/SO 14.8
Oggi h: 17:50 nuvoloso Nuvoloso 19 11 59 1018 10 O/SO 11.1
Oggi h: 17:20 nuvoloso Nuvoloso 19 11 59 1018 10 SO 18.5
Oggi h: 16:50 nuvoloso Nuvoloso 20 12 59 1018 10 O/SO 18.5
Oggi h: 16:20 nuvoloso Nuvoloso 20 11 56 1018 10 O/SO 16.7
Oggi h: 15:50 nuvoloso Nuvoloso 20 12 59 1018 10 O/SO 20.3
Oggi h: 15:20 nuvoloso Nuvoloso 20 11 56 1018 10 O/SO 22.2
Oggi h: 14:50 nuvoloso Nuvoloso 21 11 52 1018 10 O/SO 20.3
Oggi h: 14:20 nuvoloso Nuvoloso 21 12 56 1018 10 O/SO 20.3
Oggi h: 13:50 nuvoloso Nuvoloso 21 12 56 1018 10 SO 18.5
Oggi h: 13:20 nuvoloso Nuvoloso 20 12 59 1018 10 O/SO 18.5
Oggi h: 12:50 nuvoloso Nuvoloso 21 12 56 1018 10 O 20.3
Oggi h: 12:20 nuvoloso Nuvoloso 20 12 59 1018 10 O 20.3
Oggi h: 11:50 nuvoloso Nuvoloso 20 12 59 1018 10 SO 18.5
Oggi h: 11:20 poco_nuvoloso Poco Nuvoloso 20 12 59 1018 10 SO 24
Oggi h: 10:50 poco_nuvoloso Poco Nuvoloso 19 11 59 1018 10 SO 18.5
Oggi h: 10:20 poco_nuvoloso Poco Nuvoloso 19 11 59 1018 10 SO 22.2
Oggi h: 09:50 poco_nuvoloso Poco Nuvoloso 18 11 63 1018 10 SO 16.7
Oggi h: 09:20 poco_nuvoloso Poco Nuvoloso 17 11 67 1018 10 SO 18.5
Oggi h: 08:50 poco_nuvoloso Poco Nuvoloso 17 11 67 1018 10 SO 16.7
Oggi h: 08:20 poco_nuvoloso Poco Nuvoloso 16 11 72 1018 10 SO 13
Oggi h: 07:50 sereno Sereno 13 10 81 1018 10 N 3.7
Oggi h: 07:20 sereno Sereno 11 9 87 1018 10 N 5.5